Location: Gouy
(50.0008°N, 3.2556°E)
Time: 07:13:21
(UTC+00:00)

Cosmos 2151 Rocket - Pass Details

Date: 15 August 2024
Orbit: 615 x 637 km, 82.5° (Epoch: 07 September)

Event Time Altitude Azimuth Distance (km) Brightness Sun altitude
Rises 03:38:33 0° 139° (SE) 2,896 7.1 -9.1°
Reaches altitude 10° 03:41:39 10° 115° (ESE) 2,001 6.6 -8.7°
Maximum altitude 03:44:04 15° 82° (E) 1,726 6.9 -8.3°
Drops below altitude 10° 03:46:29 10° 49° (NE) 2,018 7.9 -8.0°
Sets 03:49:37 0° 26° (NNE) 2,938 8.2 -7.6°
